This is the latest recevied weather packets stored in our database for station/object AA0PB. If no packets are shown the sender has not sent any weather packets the latest 10 day(s).
| Time | Temp. | Humidity | Pressure | Rain* | Wind** | Luminosity | Snow |
|---|---|---|---|---|---|---|---|
| 1777820847 | 17.78° C | 77% | 1012.5 hPa | 0 mm | - | 51 W/m² | - |
| 1777820543 | 17.22° C | 80% | 1012.6 hPa | 0 mm | - | 110 W/m² | - |
| 1777820240 | 16.67° C | 81% | 1012.6 hPa | 0 mm | - | 100 W/m² | - |
| 1777819938 | 16.67° C | 82% | 1012.6 hPa | 0 mm | - | 46 W/m² | - |
| 1777819635 | 16.67° C | 84% | 1012.7 hPa | 0 mm | - | 82 W/m² | - |
| 1777819333 | 16.11° C | 85% | 1012.7 hPa | 0 mm | - | 72 W/m² | - |
| 1777819029 | 15° C | 88% | 1012.6 hPa | 0 mm | - | 71 W/m² | - |
| 1777818727 | 14.44° C | 89% | 1012.4 hPa | 0 mm | - | 57 W/m² | - |
| 1777818423 | 13.89° C | 90% | 1012.6 hPa | 0 mm | - | 54 W/m² | - |
| 1777818119 | 13.89° C | 89% | 1012.5 hPa | 0 mm | - | 56 W/m² | - |
| 1777817816 | 13.33° C | 91% | 1012.3 hPa | 0 mm | - | 41 W/m² | - |
| 1777817514 | 12.78° C | 94% | 1012.4 hPa | 0 mm | - | 34 W/m² | - |
| 1777817210 | 12.78° C | 96% | 1012.4 hPa | 0 mm | - | 42 W/m² | - |
| 1777816908 | 11.67° C | 98% | 1012.4 hPa | 0 mm | - | 38 W/m² | - |
| 1777816604 | 11.67° C | 99% | 1012.2 hPa | 0 mm | - | 34 W/m² | - |
| 1777816301 | 11.67° C | 99% | 1012.4 hPa | 0 mm | - | 26 W/m² | - |
| 1777815998 | 11.11° C | 99% | 1012.3 hPa | 0 mm | - | 30 W/m² | - |
| 1777815696 | 10.56° C | 99% | 1012 hPa | 0 mm | - | 28 W/m² | - |
| 1777815393 | 10.56° C | 99% | 1012.4 hPa | 0 mm | - | 23 W/m² | - |
| 1777815090 | 10.56° C | 99% | 1012.2 hPa | 0 mm | - | 20 W/m² | - |
| 1777814786 | 10.56° C | 99% | 1012.1 hPa | 0 mm | - | 16 W/m² | - |
| 1777814483 | 10° C | 99% | 1012.2 hPa | 0 mm | - | 12 W/m² | - |
| 1777814180 | 10° C | 99% | 1012.2 hPa | 0 mm | - | 10 W/m² | - |
| 1777813877 | 10° C | 99% | 1012.2 hPa | 0 mm | - | 7 W/m² | - |
| 1777813575 | 10° C | 99% | 1011.9 hPa | 0 mm | - | 5 W/m² | - |
* Rain latest hour (hover to see other rain measurements)
** Current wind speed in m/s (hover to see current wind gust speed)